Location: house
(32.4460°N, 85.5928°W)
Time: 05:57:18
(UTC-05:00)

ZACube-1 - Visible Passes

Search period start: 19 October 2019 00:00
Search period end: 29 October 2019 00:00
Orbit: 584 x 667 km, 97.6° (Epoch: 18 October)

Date Brightness Start Highest point End Pass type
(mag) Time Alt. Az. Time Alt. Az. Time Alt. Az.
19 Oct ? 19:00:17 10° SSW 19:03:58 31° W 19:07:45 10° NW visible
20 Oct ? 19:20:10 10° SW 19:23:04 18° W 19:26:01 10° NW visible
21 Oct ? 19:41:24 10° WSW 19:42:13 10° W 19:43:02 10° W visible
22 Oct ? 05:55:33 10° ENE 05:57:59 14° E 06:00:24 10° SE visible
22 Oct ? 18:20:30 10° SSE 18:24:40 82° ENE 18:28:57 10° N visible
23 Oct ? 06:13:26 10° NE 06:17:06 23° E 06:20:46 10° SSE visible
23 Oct ? 18:39:34 10° S 18:43:40 56° W 18:47:52 10° NNW visible
24 Oct ? 18:58:58 10° SSW 19:02:43 32° W 19:06:33 10° NNW visible
25 Oct ? 19:18:49 10° SW 19:21:48 19° W 19:24:51 10° NW visible
26 Oct ? 19:39:50 10° WSW 19:40:57 11° W 19:42:05 10° WNW visible
27 Oct ? 05:54:22 10° ENE 05:56:47 14° E 05:59:11 10° SE visible
27 Oct ? 18:19:12 10° SSE 18:23:24 81° ENE 18:27:45 10° N visible
28 Oct ? 06:12:15 10° NE 06:15:55 23° E 06:19:33 10° SSE visible
28 Oct ? 18:38:15 10° S 18:42:24 57° W 18:46:41 10° NNW visible
